Wind_Speed
3 0 2 3 4 1 3 4 2 3 3 7 10 12 15 11 7 3 3 14 15 17 19 21 23 24 24 24 24 24 24 24 23 23 21 20 19 19 18 17 17 17 17 15 15 14 13 13 10
1 2 1 1 5 6 5 4 5 5 8 5 6 2 7 7 9 5 8 16 16 18 20 21 24 25 26 26 25 24 23 23 23 23 22 21 20 19 19 18 17 17 17 17 15 14 13 12 12
1 1 2 1 1 4 2 4 6 9 6 3 4 8 5 5 10 6 13 15 16 18 20 21 24 24 25 25 25 25 24 24 23 23 21 21 21 20 19 19 18 18 18 17 16 14 14 12 11
2 2 2 2 6 6 5 5 5 5 7 6 5 8 8 11 6 11 12 15 18 20 21 22 24 24 25 25 25 26 27 26 26 24 23 23 22 22 21 20 18 18 18 18 17 15 14 13 12
2 2 2 4 7 7 9 9 4 4 5 9 0 6 7 9 9 12 15 18 21 22 22 23 23 23 25 26 27 28 28 28 25 25 25 24 24 24 23 22 21 19 19 19 18 16 15 12 13
2 2 5 5 8 9 8 7 11 10 7 6 7 5 6 8 16 17 18 19 19 21 21 22 23 24 25 27 27 26 25 23 23 25 23 23 23 23 22 22 20 20 20 20 18 18 17 15 13
2 2 3 6 10 7 6 5 8 8 7 11 3 3 4 16 19 19 19 19 19 21 23 25 24 26 26 25 26 25 28 27 27 26 24 24 23 21 22 22 23 24 23 22 20 18 17 17 16
1 2 5 3 10 5 6 5 8 8 10 3 8 5 6 17 19 19 18 20 22 23 24 25 25 26 26 27 25 25 24 24 25 25 24 23 23 23 21 22 23 23 25 24 21 20 18 18 16
2 1 3 3 6 8 12 6 8 9 14 16 9 10 9 13 16 18 21 23 24 25 25 24 25 25 26 25 25 25 23 23 23 22 23 24 21 21 22 21 22 22 22 22 22 21 19 19 19
5 2 4 3 6 13 9 9 10 6 9 10 9 11 13 15 17 20 22 23 26 28 27 26 25 25 26 24 25 23 23 24 24 23 22 21 21 21 21 22 21 21 21 21 21 20 21 20 19
6 4 7 7 14 14 14 13 5 7 9 9 10 12 15 17 18 20 23 24 26 26 26 26 25 26 25 25 24 23 25 25 24 22 24 22 21 19 18 18 17 16 16 19 18 19 18 17 18
8 7 7 10 13 12 11 11 17 13 6 5 6 10 13 17 21 22 22 24 25 25 26 26 25 24 25 23 25 24 24 25 22 24 23 22 21 20 19 18 18 17 16 16 17 17 17 17 18
15 11 11 12 14 15 16 14 13 11 6 5 6 10 16 19 21 21 22 23 24 25 26 25 26 24 26 23 25 24 25 24 24 23 22 21 21 20 18 19 19 18 18 18 16 16 17 17 18
11 18 17 14 14 11 13 9 3 8 4 5 9 13 16 18 20 21 23 24 25 26 26 26 26 25 26 24 26 24 24 24 24 22 21 21 21 20 19 18 19 20 18 18 17 16 16 16 17
18 14 13 12 7 13 11 10 7 5 4 7 11 13 14 18 21 22 23 24 26 26 26 25 28 25 27 26 25 25 24 25 24 23 21 22 22 21 20 19 19 18 18 18 17 18 17 17 17
4 7 6 7 8 8 5 4 5 5 5 9 12 13 14 20 21 22 23 24 26 26 24 27 26 27 26 25 25 23 24 25 25 24 24 23 23 25 24 22 20 18 17 15 15 17 17 17 17
6 2 2 6 7 3 6 6 5 3 6 10 13 15 16 17 21 22 23 24 24 24 26 26 28 26 28 25 23 23 23 23 25 24 25 24 27 28 27 25 22 18 17 15 15 15 16 17 18
2 2 2 2 5 5 5 8 7 3 8 11 14 16 16 17 19 23 24 24 23 23 25 25 26 26 27 24 24 24 24 24 23 23 24 24 29 28 27 26 22 21 18 18 16 14 14 15 16
1 1 3 5 4 4 5 10 7 2 8 13 15 16 17 18 21 22 22 22 22 24 25 25 26 27 27 26 28 28 28 27 26 23 25 26 22 28 26 23 18 17 20 18 16 15 13 13 13
3 3 3 6 3 5 7 7 5 3 5 11 15 16 18 19 19 23 23 22 23 25 25 25 26 27 27 26 26 25 28 27 25 22 24 25 25 28 25 23 20 16 18 18 16 15 14 12 11
3 3 1 3 5 2 6 7 7 3 5 12 13 14 16 17 18 20 24 23 25 25 25 27 27 28 27 26 26 26 25 23 22 25 27 23 26 27 26 21 19 16 15 17 16 16 15 13 10
0 3 5 5 6 2 3 2 5 2 4 12 14 14 17 18 17 21 23 24 24 25 23 25 27 26 25 26 25 26 23 24 25 24 27 24 27 27 25 24 23 17 17 19 16 17 19 17 12
5 1 1 5 4 3 5 4 5 1 5 15 16 15 16 17 16 18 23 24 23 24 24 25 26 25 26 26 25 24 24 23 24 25 27 24 25 27 27 27 25 22 19 15 19 20 16 18 13
1 4 6 4 2 4 4 3 5 2 8 12 14 15 17 17 15 19 21 22 22 23 24 25 27 26 26 26 25 24 24 26 25 27 27 26 25 24 28 29 24 21 15 14 16 8 11 13 14
1 3 2 3 3 3 4 4 4 6 4 9 13 14 16 16 15 17 21 22 24 24 24 26 27 27 26 27 26 24 24 24 23 26 27 28 26 26 26 29 28 23 15 13 10 6 6 9 11
5 4 3 5 4 4 3 4 4 6 3 8 9 10 13 15 14 16 19 22 22 23 24 25 26 26 27 27 26 24 24 24 22 23 26 26 26 26 28 29 28 27 18 13 9 6 6 6 10
3 3 3 2 0 4 2 3 5 5 5 9 10 12 15 16 14 16 19 20 21 21 22 24 25 25 26 26 25 25 24 24 24 24 25 26 26 27 27 27 28 26 21 13 9 7 6 5 6
4 3 1 1 5 5 2 4 2 6 8 10 11 11 13 14 14 16 17 19 19 19 20 22 23 23 24 24 25 24 24 24 25 23 25 27 28 29 29 30 29 27 20 11 9 6 4 3 5
1 2 3 1 3 3 5 3 3 6 5 8 9 10 13 13 12 14 16 17 17 18 19 20 22 23 24 24 24 25 25 23 24 25 25 27 28 30 32 33 32 29 20 6 6 4 5 3 4
1 0 2 2 2 0 2 3 6 6 4 5 8 9 12 12 11 13 15 16 18 18 20 20 22 22 22 23 24 25 24 24 22 25 26 26 27 29 31 36 39 34 11 2 4 5 5 5 4
Wind_Direction
313 50 165 213 220 142 102 83 81 103 110 67 52 57 77 40 16 43 27 8 354 349 348 349 349 345 343 343 341 339 338 335 334 331 331 331 332 331 329 327 328 331 336 331 332 336 335 339 313
358 177 202 219 253 253 113 125 87 49 88 87 59 41 48 73 36 76 11 350 349 345 344 345 345 343 341 339 337 334 331 328 325 323 321 321 320 320 319 318 317 321 324 324 320 320 326 327 326
90 98 266 93 271 291 103 79 110 74 75 49 113 51 49 24 39 13 354 347 344 342 341 338 343 341 338 335 333 331 328 325 322 316 311 311 310 309 311 310 308 312 313 314 315 311 310 313 314
256 170 128 286 93 56 59 43 125 132 85 43 86 80 92 43 16 355 351 347 342 341 340 336 338 336 335 332 329 326 323 319 316 313 310 306 304 300 300 300 300 306 309 308 307 305 306 297 300
37 229 156 100 88 107 76 56 99 101 98 46 257 89 88 43 16 1 350 346 345 340 337 334 334 332 330 328 327 324 322 318 315 312 306 301 298 297 295 295 294 294 301 305 301 298 301 308 294
196 261 231 203 117 117 85 71 75 82 77 51 77 93 79 39 8 352 343 339 337 335 334 333 331 331 330 328 327 326 326 320 315 313 307 304 299 294 292 292 291 290 293 296 294 292 291 292 302
345 297 49 110 131 139 119 73 65 76 62 47 32 76 91 14 355 343 338 336 338 338 337 337 336 334 332 330 330 328 325 319 314 310 304 301 298 292 287 285 286 286 286 289 284 284 289 284 285
44 93 125 110 168 118 127 100 79 43 55 75 359 34 14 349 344 341 340 342 341 341 339 339 338 337 335 333 334 332 330 327 324 319 312 303 297 292 287 287 286 283 281 280 278 277 279 284 282
309 209 107 93 170 128 140 118 81 81 86 66 68 45 359 343 343 343 343 341 341 340 339 337 338 339 337 336 334 335 334 333 331 326 320 317 305 293 291 289 287 284 280 275 272 271 274 279 278
17 35 63 26 95 133 120 107 112 108 77 56 41 25 6 352 350 346 345 340 339 339 338 337 333 336 337 334 333 333 334 333 331 328 327 322 312 302 294 288 288 284 278 273 270 267 270 273 269
28 68 113 65 109 122 110 88 91 122 58 36 14 358 356 350 350 348 345 343 339 336 334 335 333 333 335 336 336 336 333 330 327 324 325 324 317 311 303 297 294 288 281 277 270 267 265 261 256
104 67 102 111 114 113 101 102 76 68 76 33 16 358 351 355 356 349 343 339 337 336 337 337 336 334 335 332 335 330 332 329 327 328 324 322 322 315 309 302 293 291 284 279 272 265 262 261 257
89 106 96 104 102 102 103 88 91 73 55 35 9 2 4 358 351 346 343 339 339 340 339 340 340 339 337 332 333 331 329 326 323 321 322 324 317 314 312 308 300 289 284 279 274 267 264 260 258
111 110 111 117 111 122 108 95 109 45 13 19 8 11 3 356 350 346 347 344 343 341 340 341 341 339 339 336 334 332 328 324 320 319 319 319 315 312 308 305 301 295 288 281 276 272 267 262 258
123 110 118 133 117 129 119 71 70 24 351 11 9 5 356 355 354 354 349 345 344 342 341 342 342 341 341 338 335 332 328 325 321 318 317 317 317 313 308 301 293 290 290 288 280 272 264 263 261
131 160 164 156 165 161 287 106 87 31 4 15 5 0 357 358 354 354 351 349 346 344 344 343 346 341 342 340 335 331 329 327 321 320 317 318 314 313 305 300 297 287 283 285 285 277 271 263 259
193 310 165 154 204 161 242 136 136 49 21 15 3 1 359 353 355 356 355 351 349 348 343 345 346 345 342 338 336 334 332 331 326 322 322 320 315 308 306 302 293 291 280 273 276 277 275 269 259
325 261 108 134 153 212 201 138 149 72 24 15 2 0 356 352 357 356 354 352 349 350 348 347 348 346 344 341 340 337 336 333 329 322 323 322 322 323 307 304 299 290 281 269 261 268 273 275 271
306 179 111 110 132 200 218 170 159 82 13 6 2 359 353 353 355 356 353 352 352 352 352 352 351 350 349 345 342 338 336 334 332 329 329 327 321 328 324 315 304 296 280 277 262 259 262 268 269
164 152 84 104 129 250 174 191 192 259 8 4 0 355 352 349 354 354 354 354 356 352 354 353 351 349 351 343 338 334 332 332 330 332 330 332 328 331 325 321 314 301 295 281 270 250 245 252 255
80 359 142 331 144 94 184 211 220 209 265 360 4 357 353 354 348 351 353 353 356 357 355 354 353 349 346 344 337 337 335 334 336 334 326 324 334 331 328 321 313 301 297 290 278 262 238 237 246
204 29 275 203 204 331 212 336 188 297 288 4 357 358 354 354 352 351 352 353 357 356 353 353 353 352 348 346 342 340 334 327 329 329 326 322 339 339 336 333 323 304 301 296 289 276 249 225 234
31 355 152 182 180 215 173 258 109 269 335 1 348 356 357 354 353 351 352 352 355 356 355 352 351 351 351 349 346 343 339 335 336 337 337 341 337 341 338 339 336 319 305 303 305 274 239 219 223
50 129 113 159 215 239 128 280 149 71 348 340 339 351 352 352 354 352 351 352 356 358 356 353 353 354 351 348 346 344 341 339 338 343 344 339 336 338 341 337 333 335 312 311 323 296 247 229 231
232 239 251 223 226 359 151 244 20 136 2 342 338 344 347 352 353 352 352 355 357 357 356 355 354 354 352 350 349 347 345 344 343 345 345 338 336 337 336 338 337 331 319 312 310 292 260 242 240
27 348 6 296 325 325 175 249 79 151 353 350 347 341 349 352 353 353 356 355 352 357 355 354 354 353 354 352 351 350 349 347 345 346 342 336 337 334 335 339 339 339 329 309 308 286 263 267 232
53 39 3 283 280 274 231 147 161 204 311 358 354 351 355 353 353 353 1 357 350 355 355 353 352 354 354 353 352 352 351 350 347 343 343 345 342 338 338 338 340 338 331 317 301 298 278 278 257
15 112 230 92 339 302 255 289 38 196 345 350 354 350 353 351 352 354 359 357 354 353 352 353 354 355 355 355 355 352 353 354 352 348 348 350 349 346 344 341 340 339 339 313 303 297 280 304 234
148 143 69 67 324 301 309 76 93 126 1 334 341 347 351 353 353 353 353 354 359 356 355 352 355 356 358 357 355 355 353 351 355 357 353 352 354 354 352 349 344 338 339 306 305 320 327 276 257
14 12 302 273 194 96 293 286 150 141 13 325 341 347 347 352 353 352 354 352 358 358 355 354 355 356 356 355 355 356 353 353 354 0 360 357 359 1 1 357 358 3 11 21 340 335 348 345 319
Height
799 798 798 797 806 802 828 841 835 845 843 853 851 848 858 861 867 872 879 879 877 874 871 868 866 864 861 857 854 851 847 843 840 837 834 832 829 827 826 824 821 819 816 813 810 807 804 802 800
799 798 798 793 805 814 827 835 843 849 852 854 856 855 857 871 872 875 878 879 877 875 872 868 865 862 859 856 853 850 847 844 840 836 833 831 829 827 826 823 820 818 815 813 811 808 804 801 799
799 798 795 799 807 813 826 845 848 854 855 855 860 862 865 876 877 879 882 880 877 875 872 869 865 862 858 855 852 848 845 843 839 836 833 830 827 825 823 821 818 816 816 813 809 807 804 801 799
799 797 798 804 826 850 845 852 852 855 858 860 860 869 876 884 883 884 883 880 877 874 871 868 863 860 857 853 849 846 842 839 836 832 829 827 824 822 820 819 817 815 812 810 808 806 803 800 799
799 795 807 821 845 853 855 858 854 857 862 865 863 872 878 885 886 885 882 880 876 873 870 867 863 859 855 851 847 843 839 835 832 829 826 823 820 818 815 814 812 811 810 807 805 804 802 799 797
797 796 807 817 844 858 860 860 860 862 864 868 868 872 881 885 886 885 882 879 877 873 870 866 862 857 852 848 844 840 836 833 829 826 822 819 816 814 812 811 809 807 806 804 803 800 799 797 795
800 802 820 826 848 855 862 864 866 868 869 876 874 874 880 885 887 885 882 879 876 873 869 864 859 855 850 846 841 837 832 830 826 822 819 815 812 810 808 807 805 803 801 800 799 798 796 795 793
806 808 827 833 843 859 865 870 873 873 881 881 879 881 883 890 888 884 881 878 874 870 866 862 858 853 849 843 839 835 831 826 822 818 814 812 808 806 803 801 800 798 797 795 793 793 792 792 790
810 813 826 840 841 862 866 870 878 880 882 886 890 893 895 892 888 884 879 875 872 869 866 861 857 853 848 843 838 834 830 825 820 816 812 808 804 801 800 797 795 793 792 790 789 788 788 787 785
814 819 845 854 852 859 866 868 877 880 883 888 890 893 894 891 887 883 879 875 872 867 863 860 856 852 847 842 837 832 828 824 820 816 812 806 803 799 797 794 790 788 787 785 784 783 783 782 781
835 841 855 859 858 863 871 879 881 881 891 896 897 896 894 890 886 883 879 876 872 869 865 860 855 851 846 842 837 832 828 824 819 815 811 805 802 797 793 790 787 784 783 781 778 778 777 776 776
847 857 856 865 868 869 875 882 892 892 900 901 901 899 894 889 885 882 879 876 872 867 863 859 855 850 845 840 837 832 827 823 817 813 810 804 800 796 792 788 785 782 780 778 777 774 773 772 772
849 862 865 869 873 877 881 887 891 899 902 902 900 896 892 889 887 883 880 875 871 866 861 857 853 849 844 840 836 830 825 820 815 811 806 801 798 795 790 786 782 779 777 777 773 771 770 768 767
854 862 869 874 877 882 884 891 890 901 902 898 895 893 893 890 887 882 879 874 870 865 860 856 851 847 843 837 833 828 823 818 813 809 804 800 796 791 786 783 780 777 774 773 770 768 766 765 764
857 867 872 875 878 884 881 892 899 902 898 894 892 891 892 889 885 881 878 873 869 864 859 854 848 845 840 835 830 826 821 816 811 806 801 797 793 788 784 781 778 775 773 769 765 763 764 760 758
854 856 858 874 876 882 883 883 901 901 896 893 892 890 888 886 884 881 877 872 868 863 858 854 847 844 839 834 829 825 819 814 809 803 797 793 789 785 780 776 773 770 767 765 763 761 757 755 753
851 836 850 875 875 879 879 887 900 900 895 892 890 887 886 885 881 878 875 871 868 863 858 852 847 842 837 832 827 822 817 812 807 801 796 791 785 780 776 772 768 766 763 761 760 758 755 752 751
837 841 853 857 878 878 878 887 896 898 894 892 888 886 886 883 881 878 874 871 867 863 858 852 847 842 836 831 826 821 816 811 806 800 794 789 782 776 771 767 763 761 759 756 756 755 753 752 748
850 849 852 872 879 876 877 886 893 895 892 890 889 888 887 883 880 877 875 870 867 862 857 852 847 842 836 831 825 820 814 808 803 797 792 786 780 774 769 763 760 757 755 753 751 751 750 749 749
851 848 860 877 879 875 881 885 890 891 893 892 891 890 886 881 879 877 874 870 865 861 857 852 847 842 838 833 827 821 814 807 801 795 789 783 777 771 766 761 756 753 750 748 747 747 747 747 747
854 853 861 862 879 879 880 877 888 886 890 888 890 890 887 884 880 876 873 869 864 860 857 852 847 843 838 832 826 820 814 806 798 792 786 779 774 768 763 758 754 750 747 744 742 741 741 742 743
850 868 868 868 867 852 878 846 878 883 884 885 886 887 886 884 883 878 874 869 864 861 857 853 848 842 837 831 825 819 813 805 799 792 785 778 772 765 760 755 750 746 743 739 738 736 736 738 740
864 870 866 865 862 865 873 866 868 886 878 885 884 886 886 884 882 878 875 870 866 862 857 853 847 842 836 830 824 818 812 805 798 791 784 778 771 764 758 752 747 742 738 735 732 729 731 733 735
871 866 866 864 860 847 865 865 857 873 889 888 886 886 886 883 881 880 876 871 866 862 858 853 846 841 835 829 823 817 811 804 797 790 782 775 769 762 756 750 744 739 736 732 728 726 727 729 731
861 857 835 836 837 834 872 868 855 884 891 893 892 889 886 883 880 878 875 871 867 862 858 852 846 841 834 828 823 817 810 804 797 790 783 775 768 761 755 749 743 737 734 731 728 726 726 726 727
867 863 846 853 839 839 874 853 857 883 891 890 892 891 887 884 881 878 876 873 868 863 858 853 847 841 834 828 822 816 810 804 798 791 784 776 769 761 754 748 742 736 732 729 726 725 724 724 724
864 860 880 868 876 867 841 860 880 885 880 885 887 887 886 884 882 879 876 874 868 863 859 854 848 842 835 829 823 816 810 804 798 791 784 776 769 761 753 747 740 734 729 726 725 723 722 722 722
870 883 864 863 865 849 826 847 843 874 880 884 884 884 883 883 882 880 877 874 869 864 859 854 849 842 836 830 823 817 811 804 798 791 784 776 769 761 752 744 737 731 726 724 723 722 721 721 721
873 870 882 878 879 860 850 829 858 874 885 886 883 885 884 882 881 880 877 873 868 865 860 854 849 843 836 830 824 818 812 805 799 791 785 777 769 761 752 742 733 726 722 722 722 721 721 720 720
885 879 877 865 875 889 885 849 870 879 885 889 886 887 885 883 881 879 876 872 868 864 860 854 849 843 837 831 824 818 813 807 800 792 786 779 771 763 755 744 733 725 721 722 724 722 721 720 719